Tracking 20083 objects as of 11-Dec-2019
HD Live streaming from Space Station
objects crossing your sky now

SL-12 R/B(2)

Track SL-12 R/B(2) now!


NORAD ID: 28119
Int'l Code: 2003-053E
Perigee: 34,897.3 km
Apogee: 36,819.9 km
Inclination: 11.7 °
Period: 1,439.4 minutes
Semi major axis: 42229 km
RCS: 1.9952 m2 (large)
Launch date: November 24, 2003
Source: Commonwealth of Independent States (former USSR) (CIS)
Launch site: TYURATAM MISSILE AND SPACE COMPLEX (TTMTR)

Note: This is a ROCKET BODY
aabbcc
Your satellite tracking list
Your tracking list is empty




NASA's NSSDC Master Catalog

Two Line Element Set (TLE):
1 28119U 03053E   19344.17475478 -.00000314 +00000-0 +00000-0 0  9995
2 28119 011.7040 030.2230 0227640 245.0138 162.9768 01.00040887060902
Source of the keplerian elements: AFSPC